Regional Weather Roundup
Issued by NWS

Home | Current Version | Previous Version | Graphics & Text | Print | Product List | Glossary On
Versions: 1 2 3 4 5 6 7 8 9 10 11 12 13 14 15 16 17 18 19 20 21 22 23 24 25 26 27 28 29 30 31 32 33 34 35 36 37 38 39 40 41 42 43 44 45 46 47 48 49 50
268
ASUS44 KJAN 270703
RWRMS

MISSISSIPPI HOURLY WEATHER ROUNDUP
NATIONAL WEATHER SERVICE JACKSON MS
100 AM CST FRI FEB 27 2015

NOTE: "FAIR: INDICATES FEW OR NO CLOUDS BELOW 12,000 FEET WITH NO
SIGNIFICANT WEATHER AND/OR OBSTRUCTIONS TO VISIBILITY.

MSZ001>002-007>008-010>013-018>021-025>028-034>036-270800-
NORTHWEST MISSISSIPPI

CITY           SKY/WX    TMP DP  RH WIND       PRES   REMARKS
CLARKSDALE     CLOUDY    28  19  69 N18G24    30.46R WCI  16
CLEVELAND      CLOUDY    29  23  76 N15       30.44R WCI  18
GREENWOOD        N/A    N/A N/A N/A MISG      30.40R
GREENVILLE     CLOUDY    31  21  66 N20G25    30.42R WCI  19
OLIVE BRANCH   CLOUDY    25  18  74 N16       30.44R WCI  12
OXFORD         CLOUDY    25  18  74 N12       30.41S WCI  14
TUNICA         PTSUNNY   28  21  74 N16       30.46R WCI  17
$$

MSZ003>006-009-014>017-022>024-029>033-037>039-270800-
NORTHEAST MISSISSIPPI

CITY           SKY/WX    TMP DP  RH WIND       PRES   REMARKS
COLUMBUS AFB   CLOUDY    31  25  76 N18G24    30.35R WCI  19
CORINTH        MIX PCPN  28  19  69 N13       30.39R WCI  18
GOLDN TRIANGLE CLOUDY    30  25  80 N14G22    30.34R WCI  20
STARKVILLE     CLOUDY    32  27  80 N5        30.36R WCI  27
TUPELO         CLOUDY    29  21  72 NE15G23   30.38R WCI  18
$$

MSZ040-058-270800-
CENTRAL MISSISSIPPI

CITY           SKY/WX    TMP DP  RH WIND       PRES   REMARKS
JACKSON INTL   CLOUDY    33  29  85 N9        30.34R WCI  25
JACKSON HAWKNS CLOUDY    33  27  78 N7        30.35R WCI  27
MERIDIAN KEY   CLEAR     32  28  85 N14       30.31F WCI  22
MERIDIAN NAS   CLEAR     31  28  89 NW8       30.32S WCI  23
VICKSBURG      CLOUDY    32  26  78 N18       30.40R WCI  20
$$

MSZ059>079-270800-
SOUTH MISSISSIPPI

CITY           SKY/WX    TMP DP  RH WIND       PRES   REMARKS
BROOKHAVEN     CLOUDY    34  32  93 N12       30.34R WCI  25
HATTIESBURG    CLEAR     33  29  85 N5        30.32R WCI  29
MCCOMB         CLOUDY    35  28  75 N13G18    30.32R WCI  26
NATCHEZ        CLOUDY    34  27  75 N12       30.37R WCI  25
PINE BELT      CLEAR     32  27  80 N7        30.30S WCI  26
$$

MSZ080>082-270800-
COASTAL MISSISSIPPI

CITY           SKY/WX    TMP DP  RH WIND       PRES   REMARKS
BILOXI         PTCLDY    39  32  77 N9        30.27R WCI  33
PASCAGOULA     PTCLDY    38  30  73 N9        30.27R WCI  31
GULFPORT       PTCLDY    37  32  82 N10       30.28R WCI  30
$$



USA.gov is the U.S. government's official web portal to all federal, state and local government web resources and services.